Weather History for Phuket, Thailand

Change the Weather History Date:

Friday, March 7, 2014

  Actual Average Record
Temperature  
Mean Temperature 82 °F -  
Max Temperature 95 °F 92 °F 98 °F (2001)
Min Temperature 68 °F 76 °F 68 °F (2014)
Cooling Degree Days 16    
Growing Degree Days 32 (Base 50)    
Moisture  
Dew Point 66 °F    
Average Humidity 61    
Maximum Humidity 89    
Minimum Humidity 23    
Precipitation  
Precipitation 0.00 in 0.11 in - ()
Sea Level Pressure  
Sea Level Pressure 29.89 in    
Wind  
Wind Speed 5 mph ()    
Max Wind Speed 15 mph    
Max Gust Speed -    
Visibility 5.7 miles    
Events      
Averages and records for this station are not official NWS values.
T = Trace of Precipitation, MM = Missing Value Source: Averaged Metar Reports

Daily Weather History Graph

Daily Weather History Graph

Search for Another Location

Airport:

Trip Planner

Search our weather history database for the weather conditions in past years. The results will help you decide how hot, cold, wet, or windy it might be!

Date:

Astronomy

Mar. 07, 2014 Rise Set
Actual Time 6:37 AM ICT 6:38 PM ICT
Civil Twilight 6:16 AM ICT 6:59 PM ICT
Nautical Twilight 5:52 AM ICT 7:23 PM ICT
Astronomical Twilight 5:28 AM ICT 7:47 PM ICT
Moon 11:14 AM ICT (3/7) No Moon Set
Length of Visible Light 12h 42m
Length of Day
12h 00m
Waxing Crescent, 37% of the Moon is Illuminated
Mar 7
Waxing Crescent
Mar 8
First Quarter
Mar 17
Full
Mar 24
Last Quarter
Mar 31
New

Hourly Weather History & Observations

Time (ICT) Temp. Heat Index Dew Point Humidity Pressure Visibility Wind Dir Wind Speed Gust Speed Precip Events Conditions
12:00 AM 78.8 °F - 68.0 °F 69% 29.89 in 5.0 mi NE 3.5 mph - N/A   Scattered Clouds
12:30 AM 77.0 °F - 68.0 °F 74% 29.89 in 5.0 mi Variable 2.3 mph - N/A   Scattered Clouds
1:00 AM 77 °F - 71 °F 77% 29.87 in 6 mi Calm Calm - -   Scattered Clouds
1:00 AM 77.0 °F - 68.0 °F 74% 29.89 in 5.0 mi Variable 1.2 mph - N/A   Scattered Clouds
1:30 AM 73.4 °F - 68.0 °F 83% 29.89 in 5.0 mi Calm Calm - N/A   Scattered Clouds
2:00 AM 71.6 °F - 68.0 °F 88% 29.89 in 5.0 mi Calm Calm - N/A   Scattered Clouds
2:30 AM 73.4 °F - 68.0 °F 83% 29.89 in 5.0 mi Variable 2.3 mph - N/A   Scattered Clouds
3:00 AM 73.4 °F - 66.2 °F 78% 29.86 in 5.0 mi Variable 1.2 mph - N/A   Scattered Clouds
3:30 AM 73.4 °F - 68.0 °F 83% 29.86 in 5.0 mi ENE 4.6 mph - N/A   Scattered Clouds
4:00 AM 74 °F - 69 °F 79% 29.79 in 6 mi Calm Calm - -   Scattered Clouds
4:00 AM 75.2 °F - 68.0 °F 78% 29.86 in 5.0 mi East 6.9 mph - N/A   Scattered Clouds
4:30 AM 77.0 °F - 68.0 °F 74% 29.86 in 5.0 mi ENE 10.4 mph - N/A   Scattered Clouds
5:00 AM 75.2 °F - 68.0 °F 78% 29.86 in 5.0 mi East 4.6 mph - N/A   Scattered Clouds
5:30 AM 75.2 °F - 68.0 °F 78% 29.86 in 5.0 mi SE 3.5 mph - N/A   Scattered Clouds
6:00 AM 73.4 °F - 68.0 °F 83% 29.89 in 5.0 mi Variable 2.3 mph - N/A   Scattered Clouds
6:30 AM 73.4 °F - 68.0 °F 83% 29.89 in 5.0 mi SE 4.6 mph - N/A   Scattered Clouds
7:00 AM 74 °F - 69 °F 80% 29.85 in 6 mi Calm Calm - -   Scattered Clouds
7:00 AM 75.2 °F - 68.0 °F 78% 29.89 in 5.6 mi ESE 5.8 mph - N/A   Partly Cloudy
7:30 AM 77.0 °F - 66.2 °F 69% 29.92 in 5.6 mi East 10.4 mph - N/A   Partly Cloudy
8:00 AM 78.8 °F - 66.2 °F 65% 29.92 in 5.6 mi East 10.4 mph - N/A   Partly Cloudy
8:30 AM 80.6 °F 82.7 °F 66.2 °F 61% 29.95 in 6.2 mi East 12.7 mph - N/A   Scattered Clouds
9:00 AM 82.4 °F 84.6 °F 66.2 °F 58% 29.95 in 6.2 mi ENE 13.8 mph - N/A   Scattered Clouds
9:30 AM 84.2 °F 86.6 °F 66.2 °F 55% 29.95 in 6.2 mi ENE 15.0 mph - N/A   Scattered Clouds
10:00 AM 84 °F - 65 °F 44% 29.91 in 6 mi East 12.7 mph - -   Scattered Clouds
10:00 AM 84.2 °F 85.6 °F 64.4 °F 51% 29.95 in 6.2 mi East 12.7 mph - N/A   Scattered Clouds
10:30 AM 84.2 °F 85.0 °F 62.6 °F 48% 29.95 in 6.2 mi ENE 12.7 mph - N/A   Scattered Clouds
11:00 AM 86.0 °F 86.6 °F 62.6 °F 45% 29.95 in 6.2 mi ENE 15.0 mph - N/A   Scattered Clouds
11:30 AM 86.0 °F 86.6 °F 62.6 °F 45% 29.95 in 6.2 mi East 13.8 mph - N/A   Scattered Clouds
12:00 PM 87.8 °F 88.5 °F 62.6 °F 43% 29.92 in 6.2 mi ENE 15.0 mph - N/A   Scattered Clouds
12:30 PM 89.6 °F 89.5 °F 60.8 °F 38% 29.92 in 6.2 mi East 11.5 mph - N/A   Scattered Clouds
1:00 PM 91 °F - 64 °F 30% 29.88 in 6 mi East 12.7 mph - -   Scattered Clouds
1:00 PM 89.6 °F 88.9 °F 59.0 °F 36% 29.89 in 6.2 mi East 11.5 mph - N/A   Scattered Clouds
1:30 PM 93.2 °F 91.9 °F 57.2 °F 30% 29.89 in 6.2 mi ENE 13.8 mph - N/A   Scattered Clouds
2:00 PM 91.4 °F 89.9 °F 57.2 °F 31% 29.86 in 6.2 mi East 11.5 mph - N/A   Scattered Clouds
2:30 PM 93.2 °F 92.6 °F 59.0 °F 32% 29.86 in 6.2 mi East 10.4 mph - N/A   Scattered Clouds
3:00 PM 93.2 °F 92.6 °F 59.0 °F 32% 29.83 in 6.2 mi ENE 11.5 mph - N/A   Scattered Clouds
3:30 PM 93.2 °F 92.6 °F 59.0 °F 32% 29.83 in 6.2 mi East 6.9 mph - N/A   Scattered Clouds
4:00 PM 95 °F - 61 °F 23% 29.80 in 6 mi East 8.1 mph - -   Scattered Clouds
4:00 PM 95.0 °F 94.4 °F 59.0 °F 30% 29.83 in 6.2 mi East 6.9 mph - N/A   Scattered Clouds
4:30 PM 93.2 °F 91.9 °F 57.2 °F 30% 29.83 in 6.2 mi ENE 5.8 mph - N/A   Scattered Clouds
5:00 PM 89.6 °F 93.4 °F 68.0 °F 49% 29.83 in 6.2 mi East 5.8 mph - N/A   Scattered Clouds
5:30 PM 87.8 °F 91.4 °F 68.0 °F 52% 29.83 in 6.2 mi West 10.4 mph - N/A   Scattered Clouds
6:00 PM 86.0 °F 90.4 °F 69.8 °F 58% 29.83 in 6.2 mi West 5.8 mph - N/A   Scattered Clouds
6:30 PM 84.2 °F 89.6 °F 71.6 °F 66% 29.86 in 6.2 mi WNW 9.2 mph - N/A   Mostly Cloudy
7:00 PM 85 °F - 73 °F 61% 29.81 in 6 mi North 10.4 mph - -   Scattered Clouds
7:00 PM 82.4 °F 87.2 °F 71.6 °F 70% 29.86 in 5.6 mi WNW 10.4 mph - N/A   Mostly Cloudy
7:30 PM 82.4 °F 87.2 °F 71.6 °F 70% 29.89 in 5.6 mi WNW 6.9 mph - N/A   Mostly Cloudy
8:00 PM 82.4 °F 87.2 °F 71.6 °F 70% 29.89 in 5.6 mi WNW 8.1 mph - N/A   Mostly Cloudy
9:00 PM 82.4 °F 86.3 °F 69.8 °F 66% 29.92 in 5.6 mi WNW 6.9 mph - N/A   Scattered Clouds
9:30 PM 82.4 °F 86.3 °F 69.8 °F 66% 29.92 in 5.6 mi NW 4.6 mph - N/A   Scattered Clouds
10:00 PM 80 °F - 73 °F 74% 29.91 in 6 mi Calm Calm - -   Mist
10:00 PM 80.6 °F 83.9 °F 69.8 °F 70% 29.95 in 5.0 mi North 2.3 mph - N/A   Scattered Clouds
10:30 PM 77.0 °F - 69.8 °F 78% 29.95 in 5.0 mi Calm Calm - N/A   Scattered Clouds
11:00 PM 75.2 °F - 69.8 °F 83% 29.95 in 5.0 mi Calm Calm - N/A   Scattered Clouds
11:30 PM 75.2 °F - 71.6 °F 89% 29.95 in 5.0 mi East 2.3 mph - N/A   Scattered Clouds